This is the latest recevied weather packets stored in our database for station/object NW5W-12. If no packets are shown the sender has not sent any weather packets the latest 10 day(s).
| Time | Temp. | Humidity | Pressure | Rain* | Wind** | Luminosity | Snow |
|---|---|---|---|---|---|---|---|
| 1788102240 | 15.56° C | 75% | 1020.2 hPa | 1.02 mm | - | - | - |
| 1788101940 | 15.56° C | 78% | 1020.2 hPa | 1.02 mm | - | - | - |
| 1788101639 | 15° C | 78% | 1020.1 hPa | 1.02 mm | - | - | - |
| 1788101340 | 13.89° C | 83% | 1020.1 hPa | 1.02 mm | - | - | - |
| 1788101039 | 13.89° C | 85% | 1020.1 hPa | 1.02 mm | - | - | - |
| 1788100740 | 13.33° C | 86% | 1020 hPa | 1.02 mm | - | - | - |
| 1788100439 | 13.33° C | 84% | 1020 hPa | 1.02 mm | - | - | - |
| 1788100139 | 12.78° C | 85% | 1020 hPa | 1.02 mm | - | - | - |
| 1788099840 | 12.78° C | 88% | 1020.1 hPa | 1.02 mm | - | - | - |
| 1788099540 | 12.78° C | 89% | 1020.1 hPa | 1.02 mm | - | - | - |
| 1788099240 | 12.78° C | 88% | 1020 hPa | 1.02 mm | - | - | - |
| 1788098940 | 12.78° C | 86% | 1020.1 hPa | 1.02 mm | - | - | - |
| 1788098640 | 12.78° C | 85% | 1020.2 hPa | 1.02 mm | - | - | - |
| 1788098340 | 12.78° C | 84% | 1020.3 hPa | 1.02 mm | - | - | - |
| 1788098040 | 13.33° C | 83% | 1020.2 hPa | 1.02 mm | - | - | - |
| 1788097740 | 13.33° C | 80% | 1020.1 hPa | 1.02 mm | - | - | - |
| 1788097440 | 13.89° C | 79% | 1019.9 hPa | 1.02 mm | - | - | - |
| 1788097139 | 13.89° C | 78% | 1019.8 hPa | 1.02 mm | - | - | - |
| 1788096840 | 14.44° C | 77% | 1019.9 hPa | 1.02 mm | - | - | - |
| 1788096540 | 13.89° C | 77% | 1019.7 hPa | 1.02 mm | - | - | - |
| 1788096240 | 13.89° C | 75% | 1019.9 hPa | 1.02 mm | - | - | - |
| 1788095940 | 13.89° C | 78% | 1019.5 hPa | 1.02 mm | - | - | - |
| 1788095640 | 13.89° C | 76% | 1019.5 hPa | 1.02 mm | - | - | - |
| 1788095348 | 13.89° C | 76% | 1019.5 hPa | 1.02 mm | - | - | - |
| 1788095040 | 13.33° C | 77% | 1019.5 hPa | 1.02 mm | - | - | - |
* Rain since midnight (hover to see other rain measurements)
** Current wind speed in m/s (hover to see current wind gust speed)